TOM2GK EGBB-GCTS

Flight info

Callsign TOM2GK
Flight time 4h 10m
Altitude 37000
Route BRUMI N92 BUCGO L9 TIGWE DCT ZIPWE DCT INFEC DCT PEWBI DCT GAPLI/M079F370 DCT EMPER DCT LASNO T9 BEGAS/N0455F370 DCT RIPEL DCT MIMBO DCT VEDEL DCT OBESA DCT PECKY DCT RAKUN DCT ORTIS
Aircraft B738/M-SDE2E3FGHIRWXY/LB1

Departure

Time 2026-05-06 17:54
Airport Birmingham Airport (EGBB)

Arrival

Time 2026-05-06 22:04
Airport Tenerife Sur Airport (GCTS)
Time Latitude Longitude Altitude Speed Heading
2026-05-06 17:44 52.45268 -1.73522 322 ft 0 kts 326°
2026-05-06 17:45 52.45267 -1.73521 322 ft 1 kts 326°
2026-05-06 17:46 52.45248 -1.73500 322 ft 2 kts 326°
2026-05-06 17:46 52.45230 -1.73480 321 ft 4 kts 324°
2026-05-06 17:46 52.45209 -1.73452 322 ft 4 kts 306°
2026-05-06 17:46 52.45206 -1.73448 322 ft 4 kts 290°
2026-05-06 17:47 52.45198 -1.73484 322 ft 4 kts 237°
2026-05-06 17:47 52.45190 -1.73504 322 ft 0 kts 236°
2026-05-06 17:49 52.45186 -1.73512 322 ft 5 kts 236°
2026-05-06 17:50 52.45143 -1.73615 322 ft 14 kts 234°
2026-05-06 17:50 52.45080 -1.73733 322 ft 14 kts 210°
2026-05-06 17:50 52.44995 -1.73700 322 ft 13 kts 146°
2026-05-06 17:50 52.44914 -1.73641 322 ft 13 kts 186°
2026-05-06 17:51 52.44822 -1.73684 322 ft 16 kts 197°
2026-05-06 17:51 52.44715 -1.73723 321 ft 16 kts 168°
2026-05-06 17:51 52.44625 -1.73632 322 ft 15 kts 145°
2026-05-06 17:51 52.44543 -1.73539 322 ft 14 kts 145°
2026-05-06 17:52 52.44463 -1.73449 322 ft 14 kts 146°
2026-05-06 17:52 52.44380 -1.73419 322 ft 13 kts 212°
2026-05-06 17:52 52.44326 -1.73537 321 ft 13 kts 236°
2026-05-06 17:52 52.44347 -1.73649 320 ft 13 kts 323°
2026-05-06 17:53 52.44429 -1.73741 322 ft 25 kts 326°
2026-05-06 17:53 52.44763 -1.74113 324 ft 90 kts 326°
2026-05-06 17:53 52.45434 -1.74863 323 ft 145 kts 326°
2026-05-06 17:53 52.46367 -1.75924 484 ft 173 kts 326°
2026-05-06 17:54 52.47319 -1.76995 1301 ft 168 kts 328°
2026-05-06 17:54 52.48313 -1.78158 1795 ft 184 kts 327°
2026-05-06 17:54 52.49416 -1.79405 2255 ft 203 kts 328°
2026-05-06 17:54 52.50659 -1.80785 2565 ft 219 kts 327°
2026-05-06 17:55 52.51706 -1.82592 3082 ft 229 kts 296°
2026-05-06 17:55 52.51854 -1.85180 3692 ft 234 kts 261°
2026-05-06 17:55 52.51447 -1.87779 4286 ft 237 kts 254°
2026-05-06 17:55 52.50794 -1.90270 4887 ft 241 kts 232°
2026-05-06 17:56 52.49430 -1.91987 5269 ft 261 kts 205°
2026-05-06 17:56 52.47715 -1.93230 5778 ft 273 kts 204°
2026-05-06 17:56 52.45964 -1.94482 6527 ft 276 kts 204°
2026-05-06 17:56 52.44187 -1.95751 7282 ft 279 kts 204°
2026-05-06 17:57 52.42428 -1.97027 8027 ft 281 kts 205°
2026-05-06 17:57 52.40630 -1.98343 8734 ft 284 kts 204°
2026-05-06 17:57 52.38810 -1.99676 9456 ft 287 kts 205°
2026-05-06 17:57 52.37175 -2.01523 10106 ft 288 kts 231°
2026-05-06 17:58 52.35917 -2.04154 10472 ft 304 kts 234°
2026-05-06 17:58 52.34602 -2.07021 10650 ft 325 kts 234°
2026-05-06 17:58 52.33207 -2.10086 10865 ft 345 kts 234°
2026-05-06 17:58 52.31749 -2.13277 11374 ft 353 kts 234°
2026-05-06 17:59 52.30268 -2.16503 12056 ft 356 kts 234°
2026-05-06 17:59 52.28772 -2.19749 12769 ft 357 kts 235°
2026-05-06 17:59 52.27268 -2.23002 13413 ft 360 kts 234°
2026-05-06 17:59 52.25765 -2.26237 14025 ft 363 kts 234°
2026-05-06 18:00 52.24234 -2.29532 14624 ft 367 kts 234°
2026-05-06 18:00 52.22680 -2.32869 15226 ft 370 kts 234°
2026-05-06 18:00 52.21119 -2.36222 15846 ft 372 kts 234°
2026-05-06 18:00 52.19541 -2.39597 16428 ft 375 kts 234°
2026-05-06 18:01 52.17947 -2.42998 16981 ft 378 kts 234°
2026-05-06 18:01 52.16343 -2.46422 17533 ft 381 kts 234°
2026-05-06 18:01 52.14726 -2.49865 18080 ft 384 kts 234°
2026-05-06 18:01 52.13098 -2.53331 18599 ft 387 kts 234°
2026-05-06 18:02 52.11451 -2.56833 19123 ft 389 kts 233°
2026-05-06 18:02 52.09818 -2.60300 19617 ft 392 kts 234°
2026-05-06 18:02 52.08150 -2.63838 20113 ft 395 kts 234°
2026-05-06 18:02 52.06472 -2.67389 20632 ft 397 kts 233°
2026-05-06 18:03 52.04784 -2.70959 21108 ft 399 kts 233°
2026-05-06 18:03 52.03085 -2.74547 21545 ft 402 kts 233°
2026-05-06 18:03 52.01366 -2.78170 21982 ft 405 kts 233°
2026-05-06 18:03 51.99644 -2.81799 22405 ft 407 kts 233°
2026-05-06 18:04 51.97909 -2.85450 22814 ft 410 kts 233°
2026-05-06 18:04 51.96162 -2.89116 23201 ft 412 kts 233°
2026-05-06 18:04 51.94397 -2.92815 23602 ft 415 kts 233°
2026-05-06 18:04 51.92649 -2.96475 24008 ft 416 kts 233°
2026-05-06 18:05 51.90870 -3.00193 24390 ft 418 kts 233°
2026-05-06 18:05 51.89077 -3.03939 24749 ft 421 kts 233°
2026-05-06 18:05 51.87276 -3.07702 25111 ft 423 kts 233°
2026-05-06 18:05 51.85473 -3.11467 25454 ft 425 kts 233°
2026-05-06 18:06 51.83648 -3.15263 25827 ft 426 kts 233°
2026-05-06 18:06 51.81823 -3.19054 26144 ft 428 kts 234°
2026-05-06 18:06 51.80683 -3.21660 26342 ft 429 kts 239°
2026-05-06 18:06 51.78916 -3.27375 26751 ft 430 kts 248°
2026-05-06 18:07 51.77755 -3.31769 27084 ft 431 kts 247°
2026-05-06 18:07 51.76572 -3.36222 27391 ft 432 kts 247°
2026-05-06 18:07 51.75373 -3.40694 27673 ft 434 kts 247°
2026-05-06 18:07 51.74571 -3.43662 27881 ft 435 kts 247°
2026-05-06 18:08 51.73358 -3.48114 28169 ft 437 kts 246°
2026-05-06 18:08 51.72126 -3.52598 28415 ft 439 kts 246°
2026-05-06 18:08 51.70881 -3.57110 28687 ft 440 kts 247°
2026-05-06 18:08 51.69662 -3.61644 29022 ft 439 kts 248°
2026-05-06 18:09 51.68472 -3.66165 29427 ft 437 kts 248°
2026-05-06 18:09 51.67489 -3.69919 29793 ft 434 kts 248°
2026-05-06 18:09 51.66315 -3.74408 30188 ft 432 kts 248°
2026-05-06 18:09 51.65145 -3.78860 30491 ft 432 kts 248°
2026-05-06 18:10 51.63986 -3.83258 30754 ft 432 kts 248°
2026-05-06 18:10 51.62807 -3.87715 31043 ft 432 kts 248°
2026-05-06 18:10 51.61628 -3.92161 31364 ft 431 kts 248°
2026-05-06 18:10 51.60451 -3.96585 31631 ft 431 kts 248°
2026-05-06 18:11 51.58225 -4.04923 31858 ft 437 kts 248°
2026-05-06 18:11 51.57038 -4.09361 32142 ft 436 kts 248°
2026-05-06 18:11 51.55868 -4.13726 32459 ft 434 kts 248°
2026-05-06 18:12 51.54794 -4.17725 32698 ft 434 kts 248°
2026-05-06 18:12 51.53871 -4.21150 32864 ft 434 kts 248°
2026-05-06 18:12 51.52934 -4.24619 33016 ft 435 kts 248°
2026-05-06 18:12 51.51885 -4.28491 33229 ft 435 kts 248°
2026-05-06 18:13 51.50831 -4.32373 33425 ft 435 kts 248°
2026-05-06 18:13 51.49872 -4.35903 33589 ft 435 kts 248°
2026-05-06 18:13 51.48893 -4.39503 33781 ft 434 kts 248°
2026-05-06 18:13 51.47985 -4.42833 33969 ft 434 kts 247°
2026-05-06 18:14 51.46960 -4.46575 34110 ft 434 kts 247°
2026-05-06 18:14 51.45958 -4.50231 34231 ft 435 kts 247°
2026-05-06 18:14 51.44970 -4.53838 34371 ft 436 kts 247°
2026-05-06 18:14 51.43973 -4.57479 34544 ft 435 kts 247°
2026-05-06 18:15 51.42963 -4.61167 34715 ft 435 kts 247°
2026-05-06 18:15 51.41879 -4.65119 34877 ft 435 kts 247°
2026-05-06 18:15 51.39773 -4.72775 34982 ft 439 kts 248°
2026-05-06 18:16 51.37617 -4.80622 35002 ft 438 kts 247°
2026-05-06 18:16 51.35385 -4.88672 35002 ft 435 kts 247°
2026-05-06 18:17 51.33203 -4.96529 34994 ft 432 kts 247°
2026-05-06 18:17 51.30867 -5.04489 35004 ft 432 kts 240°
2026-05-06 18:18 51.27840 -5.11850 35014 ft 435 kts 237°
2026-05-06 18:18 51.24693 -5.19123 35003 ft 442 kts 237°
2026-05-06 18:19 51.21569 -5.26409 35006 ft 444 kts 237°
2026-05-06 18:19 51.18517 -5.33595 34999 ft 446 kts 237°
2026-05-06 18:20 51.15134 -5.41587 34995 ft 447 kts 237°
2026-05-06 18:20 51.11725 -5.49632 34994 ft 447 kts 237°
2026-05-06 18:21 51.08289 -5.57701 34997 ft 445 kts 237°
2026-05-06 18:21 51.04872 -5.65688 34990 ft 443 kts 237°
2026-05-06 18:22 51.01470 -5.73616 34989 ft 441 kts 237°
2026-05-06 18:22 50.98089 -5.81482 35005 ft 439 kts 237°
2026-05-06 18:23 50.94708 -5.89315 35006 ft 438 kts 237°
2026-05-06 18:23 50.91320 -5.97152 35009 ft 436 kts 237°
2026-05-06 18:24 50.87944 -6.04950 35008 ft 436 kts 237°
2026-05-06 18:24 50.84568 -6.12723 35016 ft 436 kts 237°
2026-05-06 18:25 50.81167 -6.20519 35017 ft 437 kts 237°
2026-05-06 18:25 50.77726 -6.28370 35013 ft 438 kts 237°
2026-05-06 18:26 50.74369 -6.36022 35015 ft 439 kts 237°
2026-05-06 18:26 50.70930 -6.43836 35021 ft 440 kts 237°
2026-05-06 18:27 50.67497 -6.51614 35018 ft 441 kts 237°
2026-05-06 18:27 50.64030 -6.59440 35023 ft 442 kts 236°
2026-05-06 18:28 50.60532 -6.67313 35019 ft 443 kts 236°
2026-05-06 18:28 50.57071 -6.75080 35016 ft 443 kts 236°
2026-05-06 18:29 50.53608 -6.82830 35016 ft 443 kts 236°
2026-05-06 18:29 50.50121 -6.90612 35015 ft 442 kts 236°
2026-05-06 18:30 50.46654 -6.98326 35021 ft 442 kts 236°
2026-05-06 18:30 50.43134 -7.06133 35019 ft 441 kts 236°
2026-05-06 18:31 50.39630 -7.13880 35020 ft 441 kts 236°
2026-05-06 18:31 50.36153 -7.21546 35018 ft 441 kts 236°
2026-05-06 18:32 50.32619 -7.29315 35020 ft 441 kts 236°
2026-05-06 18:32 50.29137 -7.36950 35018 ft 440 kts 236°
2026-05-06 18:33 50.25626 -7.44627 35017 ft 439 kts 236°
2026-05-06 18:33 50.22093 -7.52328 35018 ft 439 kts 236°
2026-05-06 18:34 50.18579 -7.59964 35018 ft 439 kts 235°
2026-05-06 18:34 50.15075 -7.67558 35022 ft 439 kts 235°
2026-05-06 18:35 50.11546 -7.75185 35016 ft 438 kts 235°
2026-05-06 18:35 50.08052 -7.82717 35015 ft 438 kts 235°
2026-05-06 18:36 50.04482 -7.90393 35004 ft 438 kts 235°
2026-05-06 18:36 50.00910 -7.97888 35005 ft 438 kts 230°
2026-05-06 18:37 49.97125 -8.03150 35003 ft 440 kts 215°
2026-05-06 18:37 49.91166 -8.09151 35006 ft 440 kts 214°
2026-05-06 18:38 49.86028 -8.14281 35009 ft 440 kts 214°
2026-05-06 18:38 49.80884 -8.19476 35010 ft 440 kts 214°
2026-05-06 18:39 49.75759 -8.24669 35006 ft 441 kts 214°
2026-05-06 18:40 49.68097 -8.32416 35012 ft 441 kts 214°
2026-05-06 18:40 49.62958 -8.37597 35014 ft 441 kts 214°
2026-05-06 18:41 49.57815 -8.42766 35015 ft 441 kts 214°
2026-05-06 18:41 49.52690 -8.47904 35015 ft 441 kts 214°
2026-05-06 18:42 49.47544 -8.53038 35012 ft 442 kts 214°
2026-05-06 18:42 49.42384 -8.58189 35007 ft 442 kts 213°
2026-05-06 18:43 49.37223 -8.63312 35005 ft 442 kts 214°
2026-05-06 18:43 49.32109 -8.68398 35008 ft 442 kts 213°
2026-05-06 18:44 49.26945 -8.73509 35009 ft 442 kts 214°
2026-05-06 18:44 49.21799 -8.78606 35010 ft 441 kts 214°
2026-05-06 18:45 49.16651 -8.83677 35014 ft 441 kts 214°
2026-05-06 18:45 49.11522 -8.88717 35012 ft 440 kts 213°
2026-05-06 18:46 49.06390 -8.93750 35012 ft 440 kts 213°
2026-05-06 18:46 49.01109 -8.98334 34997 ft 441 kts 201°
2026-05-06 18:47 48.95113 -9.00174 35003 ft 443 kts 182°
2026-05-06 18:47 48.88935 -9.00109 35013 ft 443 kts 180°
2026-05-06 18:48 48.82759 -9.00009 35013 ft 443 kts 181°
2026-05-06 18:48 48.76615 -8.99985 35007 ft 444 kts 181°
2026-05-06 18:49 48.70704 -8.99988 35013 ft 444 kts 181°
2026-05-06 18:49 48.64565 -8.99994 35015 ft 444 kts 181°
2026-05-06 18:50 48.58400 -8.99994 35014 ft 444 kts 181°
2026-05-06 18:50 48.52258 -8.99997 35006 ft 444 kts 181°
2026-05-06 18:51 48.46081 -8.99993 35008 ft 444 kts 181°
2026-05-06 18:51 48.39908 -8.99989 35011 ft 443 kts 181°
2026-05-06 18:52 48.34836 -8.99989 35008 ft 443 kts 181°
2026-05-06 18:52 48.27692 -8.99990 35012 ft 442 kts 181°
2026-05-06 18:53 48.22582 -8.99990 35009 ft 442 kts 181°
2026-05-06 18:53 48.16439 -8.99989 35005 ft 442 kts 181°
2026-05-06 18:54 48.10286 -8.99990 35007 ft 441 kts 181°
2026-05-06 18:54 48.04198 -8.99991 35013 ft 441 kts 181°
2026-05-06 18:55 47.98074 -8.99990 35008 ft 441 kts 181°
2026-05-06 18:55 47.91971 -8.99989 35006 ft 441 kts 181°
2026-05-06 18:56 47.85840 -8.99988 35012 ft 440 kts 181°
2026-05-06 18:56 47.79756 -8.99989 35015 ft 440 kts 181°
2026-05-06 18:57 47.73640 -8.99989 35008 ft 440 kts 181°
2026-05-06 18:57 47.67511 -8.99987 35014 ft 440 kts 181°
2026-05-06 18:58 47.61400 -8.99986 35010 ft 440 kts 181°
2026-05-06 18:58 47.55304 -8.99988 35007 ft 440 kts 181°
2026-05-06 18:59 47.49185 -8.99990 35008 ft 440 kts 181°
2026-05-06 18:59 47.43063 -8.99990 35012 ft 440 kts 181°
2026-05-06 19:00 47.36973 -8.99984 35009 ft 440 kts 181°
2026-05-06 19:00 47.30805 -8.99969 35014 ft 440 kts 181°
2026-05-06 19:01 47.24683 -8.99969 35008 ft 440 kts 181°
2026-05-06 19:01 47.18572 -8.99971 35011 ft 441 kts 181°
2026-05-06 19:02 47.12443 -8.99973 35009 ft 441 kts 181°
2026-05-06 19:02 47.06302 -8.99974 35010 ft 441 kts 181°
2026-05-06 19:03 47.00210 -8.99972 35012 ft 441 kts 181°
2026-05-06 19:03 46.94141 -8.99973 35004 ft 441 kts 181°
2026-05-06 19:04 46.88021 -8.99972 35006 ft 441 kts 181°
2026-05-06 19:04 46.81876 -8.99972 35009 ft 441 kts 181°
2026-05-06 19:05 46.75763 -8.99972 35011 ft 441 kts 181°
2026-05-06 19:05 46.69632 -8.99972 35009 ft 441 kts 181°
2026-05-06 19:06 46.63516 -8.99970 35009 ft 440 kts 181°
2026-05-06 19:06 46.57465 -8.99971 35009 ft 440 kts 181°
2026-05-06 19:07 46.51405 -8.99974 35004 ft 441 kts 181°
2026-05-06 19:07 46.45263 -8.99975 35008 ft 441 kts 181°
2026-05-06 19:08 46.39120 -8.99974 35007 ft 441 kts 181°
2026-05-06 19:08 46.33030 -8.99973 35009 ft 441 kts 181°
2026-05-06 19:09 46.26893 -8.99973 35014 ft 441 kts 181°
2026-05-06 19:09 46.20744 -8.99973 35012 ft 441 kts 181°
2026-05-06 19:10 46.14658 -8.99972 35009 ft 441 kts 181°
2026-05-06 19:10 46.08529 -8.99973 35011 ft 441 kts 181°
2026-05-06 19:11 46.02389 -8.99972 35007 ft 441 kts 181°
2026-05-06 19:11 45.96236 -8.99974 35008 ft 441 kts 181°
2026-05-06 19:12 45.90137 -8.99980 35014 ft 441 kts 181°
2026-05-06 19:12 45.83996 -8.99985 35013 ft 441 kts 181°
2026-05-06 19:13 45.77844 -8.99987 35007 ft 441 kts 181°
2026-05-06 19:13 45.71697 -8.99987 35006 ft 441 kts 181°
2026-05-06 19:14 45.65576 -8.99984 35015 ft 441 kts 181°
2026-05-06 19:14 45.59433 -8.99987 35007 ft 440 kts 181°
2026-05-06 19:15 45.53334 -8.99991 35011 ft 440 kts 181°
2026-05-06 19:15 45.47204 -8.99993 35007 ft 440 kts 181°
2026-05-06 19:16 45.41068 -8.99991 35006 ft 440 kts 181°
2026-05-06 19:16 45.34940 -8.99989 35014 ft 440 kts 181°
2026-05-06 19:17 45.28803 -8.99993 35014 ft 440 kts 181°
2026-05-06 19:17 45.22667 -8.99995 35015 ft 440 kts 181°
2026-05-06 19:18 45.16585 -8.99991 35017 ft 440 kts 181°
2026-05-06 19:18 45.10454 -8.99994 35019 ft 440 kts 181°
2026-05-06 19:19 45.04319 -8.99994 35019 ft 440 kts 182°
2026-05-06 19:19 44.98316 -9.01344 35022 ft 437 kts 199°
2026-05-06 19:20 44.92798 -9.04883 35020 ft 435 kts 208°
2026-05-06 19:20 44.87423 -9.08731 35020 ft 436 kts 207°
2026-05-06 19:21 44.81995 -9.12571 35017 ft 436 kts 207°
2026-05-06 19:21 44.76568 -9.16365 35008 ft 436 kts 207°
2026-05-06 19:22 44.71124 -9.20155 35016 ft 436 kts 207°
2026-05-06 19:22 44.65684 -9.23933 35014 ft 435 kts 207°
2026-05-06 19:23 44.60283 -9.27680 35019 ft 435 kts 207°
2026-05-06 19:23 44.54821 -9.31460 35022 ft 435 kts 207°
2026-05-06 19:24 44.49422 -9.35188 35019 ft 434 kts 207°
2026-05-06 19:24 44.43995 -9.38927 35016 ft 434 kts 207°
2026-05-06 19:25 44.38573 -9.42656 35017 ft 433 kts 207°
2026-05-06 19:25 44.33194 -9.46349 35018 ft 433 kts 207°
2026-05-06 19:26 44.27787 -9.50056 35021 ft 433 kts 207°
2026-05-06 19:26 44.22365 -9.53761 35019 ft 433 kts 207°
2026-05-06 19:27 44.16951 -9.57452 35017 ft 433 kts 206°
2026-05-06 19:27 44.11536 -9.61131 35021 ft 433 kts 206°
2026-05-06 19:28 44.06153 -9.64792 35015 ft 433 kts 206°
2026-05-06 19:28 44.00735 -9.68472 35020 ft 433 kts 207°
2026-05-06 19:29 43.95312 -9.72138 35022 ft 433 kts 206°
2026-05-06 19:29 43.89875 -9.75811 35017 ft 434 kts 207°
2026-05-06 19:30 43.84443 -9.79471 35023 ft 434 kts 206°
2026-05-06 19:30 43.79049 -9.83095 35022 ft 434 kts 206°
2026-05-06 19:31 43.73610 -9.86743 35021 ft 434 kts 206°
2026-05-06 19:31 43.65444 -9.92209 35014 ft 434 kts 206°
2026-05-06 19:32 43.60026 -9.95822 35019 ft 434 kts 206°
2026-05-06 19:32 43.54575 -9.99450 35018 ft 434 kts 206°
2026-05-06 19:33 43.49127 -10.03073 35019 ft 434 kts 206°
2026-05-06 19:33 43.43684 -10.06690 35017 ft 434 kts 206°
2026-05-06 19:34 43.38243 -10.10295 35018 ft 434 kts 206°
2026-05-06 19:34 43.32801 -10.13888 35016 ft 434 kts 206°
2026-05-06 19:35 43.27350 -10.17477 35017 ft 434 kts 206°
2026-05-06 19:35 43.21936 -10.21044 35015 ft 434 kts 206°
2026-05-06 19:36 43.16489 -10.24617 35014 ft 434 kts 206°
2026-05-06 19:36 43.11046 -10.28190 35011 ft 433 kts 206°
2026-05-06 19:37 43.06518 -10.31154 35014 ft 434 kts 206°
2026-05-06 19:37 43.01067 -10.34717 35002 ft 434 kts 206°
2026-05-06 19:38 42.95611 -10.38275 35001 ft 434 kts 206°
2026-05-06 19:38 42.90153 -10.41826 34991 ft 435 kts 206°
2026-05-06 19:39 42.84723 -10.45352 34986 ft 435 kts 206°
2026-05-06 19:39 42.79243 -10.48905 34983 ft 436 kts 206°
2026-05-06 19:40 42.73758 -10.52450 34981 ft 436 kts 206°
2026-05-06 19:40 42.68368 -10.55933 34981 ft 436 kts 206°
2026-05-06 19:41 42.62780 -10.59532 34983 ft 436 kts 206°
2026-05-06 19:41 42.57297 -10.63054 34982 ft 436 kts 206°
2026-05-06 19:42 42.51846 -10.66557 34978 ft 436 kts 206°
2026-05-06 19:42 42.46365 -10.70067 34982 ft 435 kts 206°
2026-05-06 19:43 42.40880 -10.73572 34980 ft 435 kts 206°
2026-05-06 19:43 42.35393 -10.77077 34982 ft 435 kts 206°
2026-05-06 19:44 42.29916 -10.80569 34978 ft 435 kts 206°
2026-05-06 19:44 42.24600 -10.84337 34995 ft 434 kts 211°
2026-05-06 19:45 42.19423 -10.88535 34960 ft 434 kts 212°
2026-05-06 19:45 42.14094 -10.92402 34958 ft 435 kts 206°
2026-05-06 19:46 42.08550 -10.95734 34956 ft 436 kts 205°
2026-05-06 19:46 42.03000 -10.99031 34952 ft 436 kts 205°
2026-05-06 19:47 41.97493 -11.02360 34957 ft 436 kts 206°
2026-05-06 19:47 41.91960 -11.05735 34953 ft 437 kts 206°
2026-05-06 19:48 41.86415 -11.09123 34952 ft 437 kts 206°
2026-05-06 19:48 41.80872 -11.12503 34951 ft 437 kts 206°
2026-05-06 19:49 41.75326 -11.15878 34959 ft 438 kts 206°
2026-05-06 19:49 41.69806 -11.19231 34952 ft 438 kts 206°
2026-05-06 19:50 41.64259 -11.22593 34952 ft 438 kts 206°
2026-05-06 19:50 41.58707 -11.25950 34956 ft 437 kts 206°
2026-05-06 19:51 41.53148 -11.29305 34951 ft 438 kts 206°
2026-05-06 19:51 41.47627 -11.32632 34955 ft 438 kts 206°
2026-05-06 19:52 41.42068 -11.35977 34959 ft 438 kts 206°
2026-05-06 19:52 41.36501 -11.39317 34951 ft 438 kts 206°
2026-05-06 19:53 41.30945 -11.42645 34952 ft 438 kts 206°
2026-05-06 19:53 41.25419 -11.45954 34954 ft 438 kts 206°
2026-05-06 19:54 41.19864 -11.49272 34950 ft 438 kts 206°
2026-05-06 19:54 41.14313 -11.52582 34943 ft 437 kts 206°
2026-05-06 19:55 41.08756 -11.55885 34946 ft 437 kts 206°
2026-05-06 19:55 41.03196 -11.59185 34942 ft 437 kts 206°
2026-05-06 19:56 40.97631 -11.62483 34944 ft 437 kts 206°
2026-05-06 19:56 40.92078 -11.65768 34951 ft 437 kts 206°
2026-05-06 19:57 40.86545 -11.69035 34956 ft 436 kts 206°
2026-05-06 19:57 40.80997 -11.72304 34964 ft 436 kts 206°
2026-05-06 19:58 40.75492 -11.75542 34963 ft 436 kts 206°
2026-05-06 19:58 40.69956 -11.78792 34963 ft 436 kts 206°
2026-05-06 19:59 40.64403 -11.82046 34964 ft 436 kts 206°
2026-05-06 19:59 40.58853 -11.85293 34962 ft 436 kts 206°
2026-05-06 20:00 40.53339 -11.88514 34967 ft 435 kts 206°
2026-05-06 20:00 40.47795 -11.91746 34960 ft 436 kts 206°
2026-05-06 20:01 40.42241 -11.94976 34953 ft 436 kts 207°
2026-05-06 20:01 40.36694 -11.98198 34951 ft 436 kts 206°
2026-05-06 20:02 40.31184 -12.01393 34951 ft 436 kts 207°
2026-05-06 20:02 40.25620 -12.04612 34958 ft 436 kts 207°
2026-05-06 20:03 40.20058 -12.07825 34956 ft 437 kts 207°
2026-05-06 20:03 40.14491 -12.11034 34956 ft 437 kts 207°
2026-05-06 20:04 40.08953 -12.14222 34956 ft 437 kts 207°
2026-05-06 20:04 40.03381 -12.17423 34953 ft 437 kts 207°
2026-05-06 20:05 39.97813 -12.20617 34952 ft 438 kts 207°
2026-05-06 20:05 39.92256 -12.23797 34954 ft 438 kts 207°
2026-05-06 20:06 39.86675 -12.26983 34952 ft 438 kts 207°
2026-05-06 20:06 39.81096 -12.30168 34961 ft 437 kts 207°
2026-05-06 20:07 39.75512 -12.33348 34964 ft 437 kts 207°
2026-05-06 20:07 39.69959 -12.36506 34963 ft 438 kts 207°
2026-05-06 20:08 39.64368 -12.39680 34963 ft 438 kts 207°
2026-05-06 20:08 39.58770 -12.42852 34963 ft 439 kts 207°
2026-05-06 20:09 39.53149 -12.46030 34965 ft 440 kts 207°
2026-05-06 20:09 39.47528 -12.49202 34963 ft 441 kts 207°
2026-05-06 20:10 39.41937 -12.52351 34971 ft 441 kts 207°
2026-05-06 20:10 39.36314 -12.55514 34978 ft 442 kts 207°
2026-05-06 20:11 39.30719 -12.58656 34984 ft 443 kts 207°
2026-05-06 20:11 39.25111 -12.61799 34982 ft 444 kts 207°
2026-05-06 20:12 39.19473 -12.64952 34984 ft 445 kts 207°
2026-05-06 20:12 39.13875 -12.68078 34983 ft 445 kts 207°
2026-05-06 20:13 39.08326 -12.71173 34981 ft 446 kts 207°
2026-05-06 20:13 39.02844 -12.74224 34981 ft 446 kts 207°
2026-05-06 20:14 38.97260 -12.77326 34985 ft 446 kts 207°
2026-05-06 20:14 38.91637 -12.80446 34979 ft 446 kts 207°
2026-05-06 20:15 38.85951 -12.83594 34982 ft 446 kts 207°
2026-05-06 20:15 38.80263 -12.86737 34981 ft 446 kts 208°
2026-05-06 20:16 38.74552 -12.89891 35051 ft 451 kts 207°
2026-05-06 20:16 38.71702 -12.91461 35281 ft 450 kts 207°
2026-05-06 20:16 38.68833 -12.93040 35577 ft 448 kts 207°
2026-05-06 20:17 38.66022 -12.94585 35765 ft 448 kts 207°
2026-05-06 20:17 38.63277 -12.96095 35879 ft 451 kts 207°
2026-05-06 20:17 38.60386 -12.97682 36052 ft 451 kts 207°
2026-05-06 20:17 38.57545 -12.99241 36248 ft 451 kts 207°
2026-05-06 20:18 38.54700 -13.00800 36398 ft 452 kts 207°
2026-05-06 20:18 38.51832 -13.02371 36514 ft 454 kts 207°
2026-05-06 20:18 38.48981 -13.03932 36688 ft 454 kts 207°
2026-05-06 20:18 38.46106 -13.05503 36936 ft 451 kts 207°
2026-05-06 20:19 38.40349 -13.08646 36979 ft 452 kts 207°
2026-05-06 20:19 38.34623 -13.11764 36969 ft 445 kts 208°
2026-05-06 20:20 38.28972 -13.14837 36981 ft 443 kts 208°
2026-05-06 20:20 38.23306 -13.17917 36981 ft 442 kts 208°
2026-05-06 20:21 38.18588 -13.20478 36984 ft 443 kts 208°
2026-05-06 20:21 38.12918 -13.23550 36983 ft 444 kts 208°
2026-05-06 20:22 38.07269 -13.26603 36983 ft 445 kts 208°
2026-05-06 20:22 38.01665 -13.29629 36983 ft 447 kts 208°
2026-05-06 20:23 37.95975 -13.32696 36988 ft 449 kts 208°
2026-05-06 20:23 37.90216 -13.35795 36982 ft 451 kts 208°
2026-05-06 20:24 37.84464 -13.38884 36984 ft 452 kts 208°
2026-05-06 20:24 37.78684 -13.41976 36983 ft 453 kts 208°
2026-05-06 20:25 37.72888 -13.45067 36981 ft 453 kts 208°
2026-05-06 20:25 37.67071 -13.48174 36977 ft 453 kts 208°
2026-05-06 20:26 37.61286 -13.51268 36981 ft 453 kts 208°
2026-05-06 20:26 37.55517 -13.54348 36981 ft 452 kts 208°
2026-05-06 20:27 37.49712 -13.57422 36992 ft 452 kts 208°
2026-05-06 20:27 37.43923 -13.60487 36989 ft 451 kts 208°
2026-05-06 20:28 37.38135 -13.63556 36991 ft 450 kts 208°
2026-05-06 20:28 37.32372 -13.66616 36991 ft 449 kts 208°
2026-05-06 20:29 37.26646 -13.69645 36990 ft 449 kts 208°
2026-05-06 20:29 37.20886 -13.72681 36991 ft 448 kts 208°
2026-05-06 20:30 37.12266 -13.77214 37002 ft 448 kts 208°
2026-05-06 20:31 37.06502 -13.80236 37017 ft 448 kts 208°
2026-05-06 20:31 37.00786 -13.83233 37031 ft 448 kts 208°
2026-05-06 20:32 36.95031 -13.86247 37030 ft 449 kts 208°
2026-05-06 20:32 36.89256 -13.89264 37024 ft 449 kts 207°
2026-05-06 20:33 36.83468 -13.92278 37035 ft 450 kts 207°
2026-05-06 20:33 36.77713 -13.95276 37034 ft 451 kts 208°
2026-05-06 20:34 36.71903 -13.98293 37040 ft 452 kts 207°
2026-05-06 20:34 36.66073 -14.01312 37030 ft 453 kts 208°
2026-05-06 20:35 36.60233 -14.04335 37043 ft 455 kts 208°
2026-05-06 20:35 36.54414 -14.07342 37043 ft 456 kts 208°
2026-05-06 20:36 36.48529 -14.10382 37037 ft 458 kts 207°
2026-05-06 20:36 36.42625 -14.13426 37044 ft 459 kts 207°
2026-05-06 20:37 36.36743 -14.16453 37047 ft 460 kts 207°
2026-05-06 20:37 36.30821 -14.19495 37044 ft 460 kts 207°
2026-05-06 20:38 36.24907 -14.22528 37048 ft 459 kts 207°
2026-05-06 20:38 36.18998 -14.25553 37046 ft 459 kts 207°
2026-05-06 20:39 36.13106 -14.28567 37047 ft 458 kts 207°
2026-05-06 20:39 36.07257 -14.31553 37045 ft 457 kts 207°
2026-05-06 20:40 36.01389 -14.34541 37051 ft 455 kts 207°
2026-05-06 20:40 35.95529 -14.37523 37056 ft 455 kts 207°
2026-05-06 20:41 35.89674 -14.40502 37054 ft 454 kts 207°
2026-05-06 20:41 35.83864 -14.43452 37056 ft 454 kts 207°
2026-05-06 20:42 35.78022 -14.46408 37054 ft 454 kts 207°
2026-05-06 20:42 35.72161 -14.49367 37058 ft 455 kts 207°
2026-05-06 20:43 35.66302 -14.52324 37056 ft 456 kts 207°
2026-05-06 20:43 35.60431 -14.55284 37064 ft 456 kts 207°
2026-05-06 20:44 35.54536 -14.58251 37068 ft 457 kts 207°
2026-05-06 20:44 35.48639 -14.61215 37065 ft 458 kts 207°
2026-05-06 20:45 35.42728 -14.64178 37062 ft 459 kts 207°
2026-05-06 20:45 35.36814 -14.67141 37065 ft 460 kts 207°
2026-05-06 20:46 35.30881 -14.70107 37069 ft 461 kts 207°
2026-05-06 20:46 35.24981 -14.73052 37065 ft 461 kts 207°
2026-05-06 20:47 35.19030 -14.76018 37075 ft 462 kts 207°
2026-05-06 20:47 35.13061 -14.78989 37075 ft 463 kts 207°
2026-05-06 20:48 35.07097 -14.81951 37074 ft 463 kts 207°
2026-05-06 20:48 35.01150 -14.84902 37076 ft 463 kts 207°
2026-05-06 20:49 34.95178 -14.87860 37074 ft 463 kts 207°
2026-05-06 20:49 34.89193 -14.90819 37078 ft 463 kts 207°
2026-05-06 20:50 34.83223 -14.93765 37091 ft 462 kts 207°
2026-05-06 20:50 34.77305 -14.96683 37093 ft 461 kts 207°
2026-05-06 20:51 34.71350 -14.99616 37095 ft 462 kts 207°
2026-05-06 20:51 34.65385 -15.02547 37082 ft 461 kts 207°
2026-05-06 20:52 34.59439 -15.05464 37097 ft 461 kts 207°
2026-05-06 20:52 34.53481 -15.08382 37102 ft 461 kts 207°
2026-05-06 20:53 34.47527 -15.11293 37096 ft 462 kts 207°
2026-05-06 20:53 34.41555 -15.14194 37095 ft 462 kts 207°
2026-05-06 20:54 34.35610 -15.17082 37094 ft 463 kts 207°
2026-05-06 20:54 34.29630 -15.19992 37084 ft 463 kts 207°
2026-05-06 20:55 34.23626 -15.22911 37096 ft 464 kts 207°
2026-05-06 20:55 34.17624 -15.25825 37100 ft 466 kts 207°
2026-05-06 20:56 34.11589 -15.28750 37098 ft 467 kts 207°
2026-05-06 20:56 34.05576 -15.31662 37105 ft 468 kts 207°
2026-05-06 20:57 33.99521 -15.34592 37102 ft 470 kts 207°
2026-05-06 20:57 33.93443 -15.37528 37109 ft 470 kts 207°
2026-05-06 20:58 33.87350 -15.40461 37103 ft 471 kts 207°
2026-05-06 20:58 33.81258 -15.43390 37098 ft 471 kts 207°
2026-05-06 20:59 33.75172 -15.46316 37096 ft 471 kts 207°
2026-05-06 20:59 33.69082 -15.49231 37097 ft 471 kts 207°
2026-05-06 21:00 33.63002 -15.52140 37099 ft 470 kts 207°
2026-05-06 21:00 33.56961 -15.55029 37104 ft 470 kts 207°
2026-05-06 21:01 33.50886 -15.57928 37093 ft 469 kts 207°
2026-05-06 21:01 33.44813 -15.60821 37107 ft 469 kts 207°
2026-05-06 21:02 33.38740 -15.63714 37098 ft 469 kts 207°
2026-05-06 21:02 33.32722 -15.66575 37097 ft 468 kts 207°
2026-05-06 21:03 33.26666 -15.69456 37104 ft 468 kts 207°
2026-05-06 21:03 33.20608 -15.72325 37096 ft 468 kts 207°
2026-05-06 21:04 33.14555 -15.75183 37104 ft 467 kts 206°
2026-05-06 21:04 33.08494 -15.78041 37100 ft 467 kts 206°
2026-05-06 21:05 33.02471 -15.80880 37104 ft 467 kts 206°
2026-05-06 21:05 32.97449 -15.83246 37101 ft 467 kts 206°
2026-05-06 21:06 32.91403 -15.86092 37098 ft 467 kts 206°
2026-05-06 21:06 32.85362 -15.88933 37106 ft 467 kts 206°
2026-05-06 21:07 32.79337 -15.91758 37106 ft 467 kts 206°
2026-05-06 21:07 32.73287 -15.94597 37105 ft 467 kts 206°
2026-05-06 21:08 32.66958 -15.96569 37111 ft 476 kts 190°
2026-05-06 21:08 32.60361 -15.97399 37100 ft 477 kts 189°
2026-05-06 21:09 32.53749 -15.98213 37098 ft 477 kts 190°
2026-05-06 21:09 32.47166 -15.99080 37101 ft 477 kts 190°
2026-05-06 21:10 32.40614 -15.99975 37095 ft 477 kts 190°
2026-05-06 21:10 32.33998 -16.00878 37091 ft 478 kts 190°
2026-05-06 21:11 32.27413 -16.01773 37108 ft 478 kts 191°
2026-05-06 21:11 32.21027 -16.02643 37120 ft 479 kts 191°
2026-05-06 21:12 32.14415 -16.03545 37126 ft 479 kts 191°
2026-05-06 21:12 32.07595 -16.04473 37123 ft 480 kts 191°
2026-05-06 21:13 32.00961 -16.05375 37121 ft 481 kts 191°
2026-05-06 21:13 31.94339 -16.06271 37119 ft 481 kts 191°
2026-05-06 21:14 31.87677 -16.07166 37122 ft 482 kts 191°
2026-05-06 21:14 31.81018 -16.08054 37116 ft 482 kts 191°
2026-05-06 21:15 31.74353 -16.08949 37121 ft 482 kts 191°
2026-05-06 21:15 31.67693 -16.09846 37115 ft 481 kts 191°
2026-05-06 21:16 31.61042 -16.10739 37112 ft 481 kts 191°
2026-05-06 21:16 31.54378 -16.11637 37110 ft 480 kts 191°
2026-05-06 21:17 31.47781 -16.12522 37112 ft 480 kts 191°
2026-05-06 21:17 31.41141 -16.13408 37109 ft 479 kts 191°
2026-05-06 21:18 31.34525 -16.14287 37108 ft 478 kts 191°
2026-05-06 21:18 31.27908 -16.15169 37102 ft 477 kts 191°
2026-05-06 21:19 31.21315 -16.16050 37102 ft 476 kts 191°
2026-05-06 21:19 31.14808 -16.16915 37099 ft 475 kts 190°
2026-05-06 21:20 31.08247 -16.17785 37106 ft 474 kts 191°
2026-05-06 21:20 31.01683 -16.18661 37107 ft 473 kts 190°
2026-05-06 21:21 30.95143 -16.19523 37100 ft 472 kts 190°
2026-05-06 21:21 30.88600 -16.20385 37089 ft 472 kts 190°
2026-05-06 21:22 30.82090 -16.21248 37104 ft 470 kts 190°
2026-05-06 21:22 30.75621 -16.22098 37084 ft 470 kts 190°
2026-05-06 21:23 30.69104 -16.22963 37099 ft 471 kts 190°
2026-05-06 21:23 30.62584 -16.23823 37095 ft 471 kts 190°
2026-05-06 21:24 30.56110 -16.24681 37078 ft 471 kts 190°
2026-05-06 21:24 30.49591 -16.25536 37091 ft 471 kts 190°
2026-05-06 21:25 30.43066 -16.26387 37081 ft 471 kts 190°
2026-05-06 21:25 30.36552 -16.27235 37083 ft 471 kts 190°
2026-05-06 21:26 30.30084 -16.28081 37077 ft 470 kts 190°
2026-05-06 21:26 30.23542 -16.28937 37079 ft 470 kts 190°
2026-05-06 21:27 30.17083 -16.29781 37083 ft 469 kts 190°
2026-05-06 21:27 30.13819 -16.30211 36842 ft 474 kts 190°
2026-05-06 21:27 30.10527 -16.30640 36335 ft 475 kts 190°
2026-05-06 21:27 30.07249 -16.31062 35843 ft 473 kts 191°
2026-05-06 21:28 30.03985 -16.31482 35437 ft 469 kts 191°
2026-05-06 21:28 30.00751 -16.31901 35014 ft 466 kts 191°
2026-05-06 21:28 29.97573 -16.32311 34608 ft 464 kts 191°
2026-05-06 21:28 29.94361 -16.32727 34198 ft 461 kts 192°
2026-05-06 21:29 29.91176 -16.33139 33784 ft 459 kts 192°
2026-05-06 21:29 29.88004 -16.33551 33373 ft 457 kts 192°
2026-05-06 21:29 29.84842 -16.33961 32963 ft 455 kts 191°
2026-05-06 21:29 29.81706 -16.34367 32561 ft 453 kts 191°
2026-05-06 21:30 29.78586 -16.34771 32159 ft 451 kts 191°
2026-05-06 21:30 29.75467 -16.35175 31739 ft 450 kts 191°
2026-05-06 21:30 29.72364 -16.35579 31343 ft 448 kts 191°
2026-05-06 21:30 29.69278 -16.35978 30947 ft 446 kts 190°
2026-05-06 21:31 29.66198 -16.36375 30551 ft 444 kts 190°
2026-05-06 21:31 29.63176 -16.36764 30163 ft 442 kts 190°
2026-05-06 21:31 29.60128 -16.37182 29766 ft 439 kts 193°
2026-05-06 21:31 29.57175 -16.37987 29295 ft 433 kts 204°
2026-05-06 21:32 29.54348 -16.39164 28798 ft 432 kts 205°
2026-05-06 21:32 29.48743 -16.41620 27970 ft 428 kts 205°
2026-05-06 21:32 29.45968 -16.42836 27594 ft 425 kts 205°
2026-05-06 21:33 29.43212 -16.44033 27188 ft 423 kts 205°
2026-05-06 21:33 29.40457 -16.45218 26800 ft 420 kts 204°
2026-05-06 21:33 29.37760 -16.46371 26401 ft 418 kts 204°
2026-05-06 21:33 29.35004 -16.47545 26002 ft 416 kts 204°
2026-05-06 21:34 29.32333 -16.48680 25624 ft 414 kts 204°
2026-05-06 21:34 29.29641 -16.49823 25259 ft 411 kts 204°
2026-05-06 21:34 29.26956 -16.50960 24882 ft 409 kts 204°
2026-05-06 21:34 29.24293 -16.52088 24510 ft 407 kts 204°
2026-05-06 21:35 29.21647 -16.53209 24115 ft 405 kts 203°
2026-05-06 21:35 29.19009 -16.54325 23738 ft 402 kts 203°
2026-05-06 21:35 29.16391 -16.55433 23373 ft 399 kts 203°
2026-05-06 21:35 29.13801 -16.56530 23067 ft 395 kts 204°
2026-05-06 21:36 29.11230 -16.57616 22732 ft 392 kts 203°
2026-05-06 21:36 29.08674 -16.58696 22403 ft 389 kts 203°
2026-05-06 21:36 29.06185 -16.59746 22087 ft 385 kts 204°
2026-05-06 21:36 29.03672 -16.60806 21752 ft 382 kts 204°
2026-05-06 21:37 29.01189 -16.61854 21422 ft 379 kts 204°
2026-05-06 21:37 28.98725 -16.62892 21101 ft 376 kts 204°
2026-05-06 21:37 28.96282 -16.63921 20772 ft 372 kts 204°
2026-05-06 21:37 28.93855 -16.64944 20452 ft 369 kts 204°
2026-05-06 21:38 28.91456 -16.65954 20141 ft 366 kts 204°
2026-05-06 21:38 28.89070 -16.66959 19822 ft 363 kts 204°
2026-05-06 21:38 28.86708 -16.67952 19500 ft 360 kts 204°
2026-05-06 21:38 28.85154 -16.68605 19282 ft 358 kts 204°
2026-05-06 21:39 28.82822 -16.69586 18954 ft 355 kts 204°
2026-05-06 21:39 28.80511 -16.70557 18637 ft 353 kts 204°
2026-05-06 21:39 28.77475 -16.71831 18220 ft 348 kts 204°
2026-05-06 21:39 28.75966 -16.72466 18004 ft 347 kts 204°
2026-05-06 21:40 28.73708 -16.73414 17679 ft 344 kts 204°
2026-05-06 21:40 28.71467 -16.74353 17343 ft 342 kts 204°
2026-05-06 21:40 28.69232 -16.75289 17001 ft 340 kts 204°
2026-05-06 21:40 28.67015 -16.76217 16681 ft 338 kts 204°
2026-05-06 21:41 28.64809 -16.77141 16350 ft 336 kts 204°
2026-05-06 21:41 28.62619 -16.78056 16011 ft 334 kts 204°
2026-05-06 21:41 28.60444 -16.78967 15684 ft 332 kts 204°
2026-05-06 21:41 28.58281 -16.79872 15357 ft 330 kts 204°
2026-05-06 21:42 28.56133 -16.80770 15023 ft 328 kts 203°
2026-05-06 21:42 28.53987 -16.81666 14692 ft 327 kts 203°
2026-05-06 21:42 28.51882 -16.82545 14376 ft 324 kts 203°
2026-05-06 21:42 28.49764 -16.83430 14043 ft 323 kts 203°
2026-05-06 21:43 28.47662 -16.84308 13719 ft 321 kts 203°
2026-05-06 21:43 28.45562 -16.85183 13393 ft 319 kts 203°
2026-05-06 21:43 28.43478 -16.86053 13065 ft 317 kts 203°
2026-05-06 21:43 28.41432 -16.86907 12748 ft 316 kts 203°
2026-05-06 21:44 28.39370 -16.87766 12438 ft 314 kts 202°
2026-05-06 21:44 28.37324 -16.88618 12126 ft 312 kts 202°
2026-05-06 21:44 28.35290 -16.89464 11834 ft 310 kts 202°
2026-05-06 21:44 28.33263 -16.90308 11514 ft 310 kts 202°
2026-05-06 21:45 28.31242 -16.91149 11171 ft 309 kts 202°
2026-05-06 21:45 28.29234 -16.91984 10915 ft 305 kts 202°
2026-05-06 21:45 28.27276 -16.92797 10824 ft 295 kts 202°
2026-05-06 21:45 28.25370 -16.93589 10657 ft 288 kts 202°
2026-05-06 21:46 28.23491 -16.94370 10396 ft 287 kts 202°
2026-05-06 21:46 28.21623 -16.95146 10135 ft 285 kts 202°
2026-05-06 21:46 28.19780 -16.95910 10014 ft 278 kts 202°
2026-05-06 21:46 28.17987 -16.96640 9887 ft 271 kts 198°
2026-05-06 21:47 28.16156 -16.96764 9716 ft 268 kts 169°
2026-05-06 21:47 28.14393 -16.96111 9509 ft 266 kts 159°
2026-05-06 21:47 28.12679 -16.95322 9224 ft 266 kts 158°
2026-05-06 21:47 28.10966 -16.94531 8991 ft 264 kts 158°
2026-05-06 21:48 28.09260 -16.93757 8729 ft 264 kts 158°
2026-05-06 21:48 28.07561 -16.92994 8469 ft 263 kts 158°
2026-05-06 21:48 28.05862 -16.92234 8222 ft 261 kts 158°
2026-05-06 21:48 28.04173 -16.91503 7985 ft 259 kts 164°
2026-05-06 21:49 28.02399 -16.91426 7693 ft 257 kts 197°
2026-05-06 21:49 28.00881 -16.92364 7439 ft 251 kts 225°
2026-05-06 21:49 27.99860 -16.93937 7162 ft 247 kts 245°
2026-05-06 21:49 27.99165 -16.95712 6920 ft 247 kts 249°
2026-05-06 21:50 27.98511 -16.97509 6687 ft 245 kts 249°
2026-05-06 21:50 27.97866 -16.99285 6518 ft 243 kts 249°
2026-05-06 21:50 27.97223 -17.01043 6395 ft 242 kts 249°
2026-05-06 21:50 27.96567 -17.02811 6235 ft 245 kts 249°
2026-05-06 21:51 27.95909 -17.04567 6100 ft 245 kts 249°
2026-05-06 21:51 27.95242 -17.06342 5984 ft 245 kts 249°
2026-05-06 21:51 27.94580 -17.08108 5877 ft 243 kts 249°
2026-05-06 21:51 27.93916 -17.09869 5748 ft 243 kts 249°
2026-05-06 21:52 27.93325 -17.11647 5617 ft 241 kts 261°
2026-05-06 21:52 27.92924 -17.13469 5508 ft 240 kts 245°
2026-05-06 21:52 27.91749 -17.14773 5401 ft 241 kts 204°
2026-05-06 21:52 27.90122 -17.15184 5317 ft 244 kts 180°
2026-05-06 21:53 27.88454 -17.14811 5219 ft 247 kts 159°
2026-05-06 21:53 27.86886 -17.14037 5094 ft 250 kts 146°
2026-05-06 21:53 27.85770 -17.12598 4948 ft 246 kts 108°
2026-05-06 21:53 27.85664 -17.10714 4842 ft 240 kts 70°
2026-05-06 21:54 27.86589 -17.09209 4722 ft 235 kts 32°
2026-05-06 21:54 27.87963 -17.08223 4574 ft 235 kts 44°
2026-05-06 21:54 27.88683 -17.06604 4477 ft 232 kts 75°
2026-05-06 21:54 27.89048 -17.04828 4360 ft 232 kts 73°
2026-05-06 21:55 27.89448 -17.03051 4255 ft 235 kts 73°
2026-05-06 21:55 27.89871 -17.01268 4140 ft 234 kts 72°
2026-05-06 21:55 27.90301 -16.99503 4027 ft 232 kts 72°
2026-05-06 21:55 27.90738 -16.97745 4001 ft 231 kts 71°
2026-05-06 21:56 27.91184 -16.96007 3985 ft 228 kts 70°
2026-05-06 21:56 27.91659 -16.94346 3980 ft 221 kts 69°
2026-05-06 21:56 27.92171 -16.92703 3978 ft 218 kts 67°
2026-05-06 21:56 27.92696 -16.91129 3982 ft 216 kts 66°
2026-05-06 21:57 27.93256 -16.89556 3991 ft 213 kts 65°
2026-05-06 21:57 27.93794 -16.88035 4003 ft 202 kts 65°
2026-05-06 21:57 27.94300 -16.86583 3995 ft 195 kts 65°
2026-05-06 21:57 27.94794 -16.85156 3993 ft 194 kts 66°
2026-05-06 21:58 27.95181 -16.84038 3983 ft 194 kts 66°
2026-05-06 21:58 27.95670 -16.82621 3990 ft 193 kts 65°
2026-05-06 21:58 27.96161 -16.81201 3978 ft 194 kts 66°
2026-05-06 21:58 27.96647 -16.79774 3973 ft 194 kts 65°
2026-05-06 21:59 27.97151 -16.78331 3801 ft 200 kts 65°
2026-05-06 21:59 27.97653 -16.76878 3547 ft 195 kts 66°
2026-05-06 21:59 27.98136 -16.75473 3283 ft 190 kts 65°
2026-05-06 21:59 27.98615 -16.74101 3034 ft 185 kts 65°
2026-05-06 22:00 27.99074 -16.72770 2795 ft 179 kts 65°
2026-05-06 22:00 27.99517 -16.71478 2554 ft 172 kts 65°
2026-05-06 22:00 27.99939 -16.70270 2332 ft 161 kts 66°
2026-05-06 22:00 28.00320 -16.69159 2156 ft 142 kts 67°
2026-05-06 22:01 28.00674 -16.68137 1962 ft 136 kts 67°
2026-05-06 22:01 28.00995 -16.67208 1789 ft 132 kts 67°
2026-05-06 22:01 28.01324 -16.66265 1623 ft 128 kts 68°
2026-05-06 22:01 28.01654 -16.65312 1446 ft 132 kts 68°
2026-05-06 22:02 28.01976 -16.64343 1258 ft 131 kts 68°
2026-05-06 22:02 28.02321 -16.63393 1169 ft 128 kts 68°
2026-05-06 22:02 28.02631 -16.62447 1046 ft 129 kts 68°
2026-05-06 22:02 28.02973 -16.61512 878 ft 128 kts 68°
2026-05-06 22:03 28.03279 -16.60572 679 ft 128 kts 68°
2026-05-06 22:03 28.03619 -16.59629 453 ft 130 kts 67°
2026-05-06 22:03 28.03955 -16.58671 235 ft 131 kts 66°
2026-05-06 22:03 28.04269 -16.57777 195 ft 107 kts 68°
2026-05-06 22:04 28.04480 -16.57164 206 ft 48 kts 68°
2026-05-06 22:04 28.04642 -16.56900 212 ft 36 kts 49°
2026-05-06 22:04 28.04760 -16.56801 218 ft 19 kts 334°